User: anonymous   Login
Location: Unspecified
(0.0000°N, 0.0000°E)
Time: 01:51:59
(UTC+01:00)
Language:

Haruka - Orbit

View from above orbital plane
View from above orbital plane
View from above satellite
View from above satellite

Ground track
Ground track

The orbit data is extracted from the following two-line orbital elements,

1 24720U 97005A   18317.72237007 +.00000102 +00000-0 +66910-3 0  9992
2 24720 031.2415 252.8145 5995678 346.2243 248.8883 03.83021272303277
Epoch (UTC): 13 November 2018 17:20:12
Eccentricity: 0.5995678
inclination: 31.2415°
perigee height: 531 km
apogee height: 21222 km
right ascension of ascending node: 252.8145°
argument of perigee: 346.2243°
revolutions per day: 3.83021272
mean anomaly at epoch: 248.8883°
orbit number at epoch: 30327

The dashed part of the orbit path shows where the satellite is in the earth's shadow,  

DLR